Regional Weather Roundup
Issued by NWS

Home | Current Version | Previous Version | Graphics & Text | Print | Product List | Glossary On
Versions: 1 2 3 4 5 6 7 8 9 10 11 12 13 14 15 16 17 18 19 20 21 22 23 24 25 26 27 28 29 30 31 32 33 34 35 36 37 38 39 40 41 42 43 44 45 46 47 48 49 50
545
ASUS43 KMKX 201710
RWRWI

WISCONSIN REGIONAL WEATHER ROUNDUP
NATIONAL WEATHER SERVICE MILWAUKEE/SULLIVAN WI
1200 PM CDT FRI APR 20 2018

NOTE: "FAIR" INDICATES FEW OR NO CLOUDS BELOW 12,000 FEET WITH NO
SIGNIFICANT WEATHER AND/OR OBSTRUCTIONS TO VISIBILITY.

WIZ001-002-006>008-014>016-023>028-201800-
NORTHWEST WISCONSIN

CITY           SKY/WX    TMP DP  RH WIND       PRES   REMARKS
SUPERIOR ARPT  FAIR      56  26  31 SW8       30.45F
ASHLAND        FAIR      53  20  27 SW9       30.46S
HAYWARD        FAIR      50  23  34 S8        30.46F
SIREN          FAIR      50  22  33 SW7       30.48S
CUMBERLAND     FAIR      43  23  45 S5        30.49S
RICE LAKE      FAIR      47  23  39 CALM      30.50F
CHETEK         FAIR      49  25  38 N6        30.49F
LADYSMITH      FAIR      50  23  35 CALM      30.49F
EAU CLAIRE     FAIR      49  27  42 S3        30.49F
MENOMONIE      FAIR      49  23  35 CALM      30.50F
NEW RICHMOND   FAIR      46  19  33 CALM      30.50F
OSCEOLA        FAIR      48  21  35 CALM      30.53S
$$

WIZ003>005-009-010-017-018-201800-
NORTH CENTRAL WISCONSIN

CITY           SKY/WX    TMP DP  RH WIND       PRES   REMARKS
MANITOWISH WTR FAIR      50  15  24 W3        30.44F
ARBOR VITAE    FAIR      52  13  21 W3        30.44F
WOODRUFF       FAIR      52  13  21 W3        30.44F
RHINELANDER    FAIR      51  14  22 SW8       30.46S
EAGLE RIVER    FAIR      52   9  17 W3        30.44S
LAND O LAKES   FAIR      54   8  16 NW6       30.45F
PHILLIPS       FAIR      50  17  27 SW6       30.46S
TOMAHAWK       FAIR      52  12  20 CALM      30.46F
MEDFORD        FAIR      46  23  40 S3        30.47F
MERRILL          N/A     51  17  25 SW7       30.48F
$$

WIZ029-030-035-036-043>047-201800-
CENTRAL WISCONSIN

CITY           SKY/WX    TMP DP  RH WIND       PRES   REMARKS
WAUSAU         FAIR      50  14  23 CALM      30.46F
MOSINEE        MOSUNNY   50  19  29 SW6       30.49F
MARSHFIELD     FAIR      48  23  37 SW3       30.47F
STEVENS POINT  FAIR      49  13  23 W7        30.49S
WAUPACA        FAIR      54  13  19 CALM      30.50S
WAUTOMA        FAIR      52  17  25 SW5       30.49
WISC RAPIDS    FAIR      52  19  27 CALM      30.50F
CAMP DOUGLAS   PTSUNNY   48  18  29 CALM      30.50F
$$

WIZ011>013-019>022-031-037>040-048>050-201800-
NORTHEAST WISCONSIN

CITY           SKY/WX    TMP DP  RH WIND       PRES   REMARKS
ANTIGO         FAIR      45  24  43 E5        30.47F
SHAWANO        FAIR      56   6  13 SW5       30.49S
OCONTO         FAIR      48  15  26 SE7       30.49F
STURGEON BAY   FAIR      50  10  20 W6        30.50F
GREEN BAY      FAIR      44  22  41 S6        30.51S
MANITOWOC      FAIR      48  17  29 S8        30.52S
APPLETON       MOSUNNY   48  12  23 VRB3      30.49S
CLINTONVILLE   FAIR      49  17  28 S3        30.49F
OSHKOSH        FAIR      43  27  53 S5        30.50F
$$

WIZ032>034-041-042-053>061-201800-
SOUTHWEST WISCONSIN

CITY           SKY/WX    TMP DP  RH WIND       PRES   REMARKS
LA CROSSE      FAIR      51  20  29 SW5       30.51F
SPARTA         FAIR      50  19  28 CALM      30.51F
VIROQUA        FAIR      45  22  39 CALM      30.50S
BOSCOBEL       FAIR      53  28  38 VRB5      30.51F
PRAIRIE DU CHI FAIR      50  22  33 W3        30.51F
PLATTEVILLE    FAIR      51  27  40 W3        30.51F
$$

WIZ056-057-062-063-064-067-068-201800-
SOUTH CENTRAL WISCONSIN

CITY           SKY/WX    TMP DP  RH WIND       PRES   REMARKS
REEDSBURG      FAIR      48  19  30 W5        30.50S
BARABOO/DELLS  FAIR      49  17  27 SW6       30.50S
LONE ROCK      FAIR      52  20  28 NE3       30.51F
MINERAL POINT  FAIR      54  19  26 CALM      30.50S
MADISON        PTSUNNY   52  24  33 VRB3      30.50F
MIDDLETON      FAIR      53  25  34 N5        30.50F
WATERTOWN      FAIR      46  22  38 CALM      30.51S
MONROE         FAIR      52  18  25 CALM      30.49F
JANESVILLE     MOSUNNY   55  18  22 VRB6      30.50F
$$

WIZ051-052-058>065-066-070>072-201800-
SOUTHEAST WISCONSIN

CITY           SKY/WX    TMP DP  RH WIND       PRES   REMARKS
MILWAUKEE      PTSUNNY   48  25  40 SE9       30.52S
WAUKESHA       SUNNY     48  19  32 CALM      30.52S
MILWAUKEE/TIMM SUNNY     52  16  24 S6        30.52S
RACINE         FAIR      49  28  44 SE8       30.54S
BURLINGTON     FAIR      51  27  38 S3        30.52S
KENOSHA        FAIR      54  31  41 E9        30.51S
FOND DU LAC    FAIR      45  21  38 SE3       30.50F
SHEBOYGAN      FAIR      49  24  37 S9        30.51S
WEST BEND      FAIR      50  21  32 SW5       30.50F
JUNEAU         FAIR      42  23  45 CALM      30.52S
$$

LSZ147-162-201800-
LAKE SUPERIOR

STATION/POSITION TIME  TEMP    WIND        PRES    WAVE
                       AIR SEA DIR/SP/G            HT/PER
                 (UTC) (F)     (DEG/KT/KT) (MB)    (FT/S)
DEVILS ISLAND    1700   41     240/  8/ 10 1031.9F
SAXON HARBOR     1640   45      70/  4/  5 1030.5F
$$

LMZ867-665-643>646-201800-
LAKE MICHIGAN

STATION/POSITION TIME  TEMP    WIND        PRES    WAVE
                       AIR SEA DIR/SP/G            HT/PER
                 (UTC) (F)     (DEG/KT/KT) (MB)    (FT/S)
NORTHPORT PIER   1640   37                 1032.2S
KEWAUNEE LAKESHO 1648   40     180/  6/  7 1032.1F
SHEBOYGAN LAKESH 1700   42     150/ 11/ 11 1033.6R
PORT WASHINGTON  1640   42     140/  3/  4 1034.2S
MILWAUKEE LAKESH 1650   42      70/  1/  1   N/A
KENOSHA   LAKESH 1700   43                 1033.5
$$

TC  - TEMPERATURE IN CELSIUS
VSB - VISIBILITY IN STATUTE MILES
WCI - WIND CHILL INDEX
HX  - HEAT INDEX





USA.gov is the U.S. government's official web portal to all federal, state and local government web resources and services.